Location: Dompnac
(44.5644°N, 4.1026°E)
Time: 19:12:10
(UTC+00:00)

MetOp-A - Visible Passes

Search period start: 26 January 2021 00:00
Search period end: 05 February 2021 00:00
Orbit: 819 x 821 km, 98.5° (Epoch: 26 January)

Date Brightness Start Highest point End Pass type
(mag) Time Alt. Az. Time Alt. Az. Time Alt. Az.
26 Jan 5.0 18:38:48 30° NE 18:38:48 30° NE 18:42:21 10° N visible
26 Jan 6.1 20:20:09 24° NW 20:20:09 24° NW 20:22:35 10° NNW visible
27 Jan 5.3 18:17:37 23° NE 18:17:37 23° NE 18:21:13 10° NNE visible
27 Jan 5.5 19:58:57 34° NW 19:58:57 34° NW 20:02:06 10° NNW visible
28 Jan 5.6 17:56:25 16° ENE 17:56:39 16° ENE 17:59:48 10° NNE visible
28 Jan 4.9 19:37:46 45° NNW 19:37:46 45° NNW 19:41:28 10° NNW visible
29 Jan 5.9 17:35:14 10° ENE 17:36:17 11° NE 17:37:34 10° NE visible
29 Jan 4.4 19:16:35 51° NNE 19:16:35 51° NNE 19:20:43 10° N visible
29 Jan 6.8 20:57:55 14° WNW 20:57:55 14° WNW 20:59:25 10° NW visible
30 Jan 4.5 18:55:23 43° NE 18:55:23 43° NE 18:59:51 10° N visible
30 Jan 6.3 20:36:43 22° WNW 20:36:43 22° WNW 20:39:28 10° NW visible
31 Jan 4.8 18:34:11 31° ENE 18:34:11 31° ENE 18:38:50 10° N visible
31 Jan 5.6 20:15:32 33° WNW 20:15:32 33° WNW 20:19:09 10° NNW visible
01 Feb 5.2 18:12:59 21° ENE 18:13:41 22° ENE 18:17:40 10° NNE visible
01 Feb 4.8 19:54:20 50° WNW 19:54:20 50° WNW 19:58:39 10° NNW visible
02 Feb 5.6 17:51:47 14° ENE 17:53:14 15° ENE 17:56:12 10° NNE visible
02 Feb 4.2 19:33:08 74° NNW 19:33:08 74° NNW 19:38:00 10° NNW visible
02 Feb 7.0 21:14:28 11° WNW 21:14:28 11° WNW 21:15:16 10° WNW visible
03 Feb 6.0 17:32:14 10° ENE 17:32:52 10° NE 17:33:30 10° NE visible
03 Feb 4.0 19:11:56 64° ENE 19:11:56 64° ENE 19:17:14 10° N visible
03 Feb 6.6 20:53:16 18° W 20:53:16 18° W 20:56:06 10° NW visible
04 Feb 4.4 18:50:43 41° E 18:51:18 43° ENE 18:56:21 10° N visible
04 Feb 6.0 20:32:04 27° W 20:32:04 27° W 20:36:05 10° NW visible
